Wind_Speed
13 15 16 18 20 19 18 18 19 22 23 24 28 32 34 35 35 35 33 32 30 28 25 27 26 26 22 24 27 28 30 30 29 27 28 27 26 27 28 27 30 28 29
17 18 18 20 21 20 19 19 18 19 21 24 26 32 34 34 34 33 33 31 29 27 26 27 27 25 26 27 30 30 31 31 29 27 26 25 25 24 23 20 24 25 24
18 18 19 21 23 22 21 20 19 18 19 22 28 31 32 32 33 31 29 27 26 26 26 27 28 27 28 30 32 32 30 30 29 27 26 26 22 20 22 22 23 22 22
22 20 20 21 22 22 21 21 20 19 19 20 24 28 30 31 30 30 29 27 24 25 26 27 28 28 30 32 33 33 32 30 28 29 28 26 24 21 22 22 23 22 22
21 19 20 21 22 22 22 21 21 21 20 20 23 25 27 28 29 28 29 28 25 26 26 27 28 29 33 33 34 34 33 29 30 30 27 25 24 21 21 21 22 22 23
21 20 20 20 21 22 21 21 22 22 22 21 23 25 25 26 27 28 27 27 27 27 26 28 30 33 34 35 35 34 30 28 30 29 28 27 25 21 20 21 22 22 22
21 20 19 19 19 20 21 21 21 21 21 23 24 21 24 24 24 26 25 24 23 26 28 29 32 35 37 36 34 31 30 31 31 30 29 26 23 20 20 21 22 21 22
20 19 19 17 17 19 20 20 20 21 23 25 27 28 24 20 14 16 14 20 24 26 27 30 34 37 36 34 32 32 31 29 27 28 25 23 21 21 20 21 21 22 23
17 19 19 16 16 16 17 19 21 22 24 25 26 26 25 28 28 11 16 16 22 27 28 34 36 36 34 32 32 31 29 27 27 27 25 22 22 21 20 20 22 21 22
18 17 17 15 15 15 17 19 21 25 26 27 27 26 26 26 20 20 31 20 25 28 34 35 35 34 32 31 29 29 28 28 27 27 24 23 21 21 21 21 21 22 22
18 18 17 17 16 16 16 17 20 20 19 21 26 25 24 22 28 34 31 35 27 27 36 38 37 33 30 28 28 28 29 28 27 27 25 24 22 21 21 22 21 21 21
22 20 19 18 18 16 15 16 18 18 20 23 26 23 27 28 32 29 31 33 32 30 36 41 38 29 26 31 32 31 28 27 28 28 26 24 22 22 22 21 21 20 21
26 21 20 20 19 18 15 17 18 19 20 22 22 21 23 21 27 35 31 32 33 40 39 39 33 28 29 36 35 30 26 28 27 28 26 24 22 21 21 20 20 20 20
25 24 21 20 20 18 16 19 19 19 20 21 20 20 22 27 29 29 35 35 28 36 40 36 33 29 32 36 34 29 28 28 29 28 26 24 22 21 20 19 18 18 19
26 25 25 22 22 19 16 17 19 20 21 20 18 17 17 23 25 20 30 33 26 32 41 38 34 31 34 35 30 28 29 30 29 29 27 23 22 20 19 19 18 18 17
30 29 25 24 24 22 20 18 19 18 18 19 20 18 16 26 21 20 28 32 34 34 42 39 37 37 33 31 29 30 28 27 28 29 28 24 23 22 19 18 17 17 17
37 31 28 25 26 23 22 20 18 17 16 16 21 22 26 30 33 31 34 34 34 34 38 41 37 34 30 28 29 30 27 27 28 29 29 26 23 21 20 18 17 16 16
33 33 28 27 28 25 24 22 20 18 17 17 19 25 31 29 33 36 34 36 36 36 39 40 40 35 32 29 30 30 28 28 28 29 28 27 24 23 20 19 17 16 16
38 36 32 30 30 27 24 22 19 19 18 18 20 25 31 34 33 34 35 35 36 35 39 38 37 36 30 28 28 30 28 28 28 28 27 26 24 22 21 19 19 18 17
36 36 33 31 31 28 25 21 20 18 16 17 17 23 29 36 37 36 33 36 36 37 35 37 38 32 29 28 27 28 28 28 29 29 28 26 24 23 22 21 20 20 19
32 34 35 34 33 31 27 23 18 19 17 16 18 21 17 34 39 37 33 36 37 34 38 37 31 35 29 29 22 16 17 23 25 27 27 27 26 24 23 22 22 22 22
33 32 32 35 34 29 27 22 14 17 16 18 19 20 21 24 34 38 32 36 38 32 28 31 34 27 26 33 17 15 3 4 13 21 26 28 27 27 25 25 24 24 24
30 33 35 35 36 28 29 23 14 14 10 14 16 18 20 22 26 31 35 37 39 34 34 34 33 29 27 28 31 14 3 3 6 13 25 27 28 29 27 27 26 27 27
30 30 34 32 33 26 30 26 23 17 10 13 16 15 17 21 26 27 32 38 40 44 33 33 34 30 27 24 30 19 13 12 4 2 15 26 29 29 29 30 29 30 30
30 32 33 29 31 26 32 28 24 20 16 15 14 12 14 18 24 27 32 33 43 39 38 42 31 35 31 27 26 18 12 14 11 3 3 9 26 31 33 35 33 33 33
26 28 30 29 28 26 32 28 26 24 19 17 17 18 16 17 19 28 32 31 35 40 36 34 31 32 35 31 27 33 25 13 9 6 3 4 15 22 35 37 34 35 35
Wind_Direction
181 181 177 175 172 168 164 157 151 143 138 138 147 158 155 153 153 153 152 150 145 141 138 147 151 150 135 129 131 130 127 124 119 117 115 113 110 105 108 112 110 106 105
170 172 176 178 175 173 172 167 160 152 144 143 146 157 156 156 156 157 156 154 150 142 139 146 147 146 136 135 134 131 127 124 122 120 116 110 109 107 112 114 115 112 108
176 170 175 180 179 179 177 175 170 164 157 153 152 156 159 159 159 158 157 153 151 140 140 139 138 139 138 141 139 134 132 129 128 126 122 115 116 120 119 122 116 115 120
173 172 177 183 184 184 182 179 178 175 168 162 160 162 165 164 165 165 162 156 155 148 144 141 142 144 141 144 143 141 139 135 130 125 122 123 117 115 114 117 115 115 123
173 176 178 183 189 191 189 186 184 182 175 169 164 168 168 169 169 170 168 163 163 156 149 148 147 149 148 148 144 141 138 136 133 127 127 126 124 121 122 126 124 125 123
177 182 183 184 191 194 194 193 191 186 179 175 171 172 172 171 171 170 168 165 165 157 157 155 155 153 152 148 146 143 143 143 137 132 129 127 123 121 125 127 126 127 122
181 184 186 188 194 198 199 198 196 189 183 178 174 171 165 165 164 162 161 161 167 165 164 161 156 155 152 150 148 147 147 144 138 135 131 132 127 128 129 128 128 124 122
183 187 191 192 198 201 205 203 200 194 187 178 173 171 163 153 139 152 165 160 176 167 166 163 156 156 156 154 154 152 150 149 147 142 137 134 137 133 134 132 131 128 125
180 183 188 195 202 204 205 208 204 199 197 190 186 178 170 164 165 209 187 185 188 174 167 160 157 157 157 154 154 155 155 154 149 142 141 140 141 138 137 136 134 130 127
179 185 188 194 205 218 210 210 208 204 209 195 178 173 174 178 184 197 186 191 197 183 168 162 160 159 157 154 156 158 155 155 151 149 148 147 148 140 141 141 138 136 133
184 188 192 203 205 209 217 210 211 217 212 202 193 191 188 182 184 182 186 192 209 187 175 165 163 161 158 163 163 162 158 159 157 151 153 151 149 145 146 145 143 141 136
191 190 196 203 198 194 208 201 202 203 196 195 194 213 222 208 196 196 191 190 200 187 182 167 167 165 164 165 164 162 162 161 161 154 153 153 150 151 150 148 146 145 141
197 192 194 201 198 193 199 198 190 194 196 207 216 214 209 204 209 205 206 193 208 183 177 168 170 170 167 165 164 165 162 164 157 155 154 154 156 153 154 153 152 149 144
198 199 197 198 199 196 203 199 199 201 201 202 203 209 217 215 202 206 202 196 195 174 171 169 172 171 168 168 169 165 164 162 158 157 155 159 159 159 155 158 157 150 147
199 198 197 194 194 193 206 202 199 207 210 214 212 213 227 207 201 183 168 183 190 184 178 174 171 171 171 169 171 168 166 164 163 159 161 165 166 163 163 162 161 155 151
201 201 193 195 195 193 199 202 196 202 211 217 209 203 196 175 176 187 169 175 194 184 184 178 171 166 167 173 173 173 171 168 167 167 164 171 168 166 167 167 166 162 158
204 199 192 188 192 193 195 193 189 194 206 210 208 198 179 174 174 180 186 188 196 187 183 177 173 168 165 168 174 177 173 174 172 173 170 172 174 172 170 172 170 169 168
198 200 191 187 192 192 194 196 201 201 206 213 208 205 194 187 183 181 186 192 194 187 185 181 177 171 165 171 174 177 178 178 178 180 177 178 178 175 179 178 180 179 178
199 194 191 190 190 190 188 192 199 196 199 209 218 211 210 204 195 190 190 193 195 190 188 186 182 178 166 168 171 175 181 181 183 184 184 183 185 181 184 186 189 191 191
194 193 191 191 189 187 185 187 192 196 199 207 217 207 206 206 204 193 191 198 194 192 188 187 183 183 171 170 165 177 181 184 187 190 190 189 191 193 195 195 198 204 201
184 186 188 187 190 190 186 177 187 193 197 216 223 226 211 207 207 198 191 195 193 188 188 188 174 174 169 165 142 145 169 188 190 195 196 196 198 199 200 206 207 213 214
178 181 181 185 183 184 185 186 189 194 210 228 229 230 235 227 202 203 189 194 195 187 183 185 176 163 165 172 157 142 135 170 211 203 207 205 206 209 206 212 215 219 223
178 182 180 180 182 183 194 190 180 183 195 214 228 237 239 222 217 203 193 192 193 188 178 189 182 172 166 175 169 157 136 180 149 217 221 215 213 216 217 219 222 227 229
185 181 178 175 180 182 192 192 190 188 174 200 216 235 239 219 217 209 196 196 193 191 186 186 187 183 170 171 175 180 166 150 166 161 217 222 224 224 225 228 228 232 235
175 176 174 174 181 184 191 196 193 197 195 198 195 202 201 213 218 223 210 191 190 184 184 185 193 187 188 180 179 177 167 160 174 153 160 195 226 233 233 234 235 238 240
169 168 169 172 177 179 192 195 196 196 196 192 184 182 171 185 191 204 199 184 176 174 181 179 189 187 193 192 200 205 192 167 188 156 113 174 216 226 234 236 240 244 247
Height
750 752 752 755 758 760 762 763 762 763 765 767 769 771 773 775 777 780 783 785 786 789 793 795 798 801 803 805 806 809 811 812 816 818 819 821 824 825 826 828 828 831 832
749 751 752 754 756 759 762 764 764 764 766 769 770 772 774 776 779 781 783 785 787 790 793 796 798 802 805 806 808 811 813 815 817 821 822 825 827 828 830 831 832 834 835
747 749 751 753 755 758 761 763 765 766 767 769 772 774 776 779 782 785 787 789 791 793 795 796 799 804 806 807 809 812 815 817 820 822 824 826 830 831 832 835 835 837 839
745 747 750 753 755 758 760 763 764 766 768 769 771 775 777 779 782 785 788 791 795 797 797 799 802 804 807 809 810 813 816 818 822 825 827 829 832 835 835 837 839 841 842
745 747 749 751 754 757 760 762 764 766 768 770 770 775 778 780 782 785 787 790 794 797 799 800 802 806 809 810 813 815 818 820 824 827 829 831 834 836 838 840 841 843 845
745 747 749 751 754 757 759 762 763 765 767 771 771 774 777 780 782 784 789 793 795 798 801 801 803 806 809 811 814 816 819 823 825 828 830 833 836 839 841 844 845 846 847
746 748 750 752 754 757 759 761 764 766 768 769 772 776 776 782 786 787 789 793 798 800 802 803 805 808 810 813 817 819 821 824 826 829 831 835 837 841 844 846 847 848 849
747 749 751 753 755 756 759 761 765 767 767 770 772 774 779 785 791 794 794 789 798 801 802 804 808 809 811 814 818 821 823 826 828 829 832 837 839 843 846 848 850 851 851
746 748 751 752 755 756 758 761 764 766 769 769 771 774 779 778 781 791 795 794 798 799 803 806 808 810 813 817 820 823 825 827 830 831 833 838 842 844 847 849 852 853 854
745 748 749 751 753 755 757 760 762 764 765 769 772 774 775 779 780 780 790 793 801 801 803 808 810 811 815 819 822 825 826 829 831 832 835 840 844 846 849 851 854 855 856
744 745 747 749 751 753 755 758 761 764 766 769 772 774 776 779 781 783 786 787 794 800 802 806 810 812 816 821 823 826 828 829 831 833 837 840 845 847 850 853 855 857 858
741 741 744 747 749 751 754 756 759 762 765 767 770 773 775 776 778 782 784 788 790 795 802 806 809 813 817 821 824 826 828 830 832 834 839 842 845 848 851 854 857 858 859
736 739 741 744 747 749 752 755 758 761 763 766 767 770 772 774 778 779 782 785 789 789 800 805 809 811 816 820 823 827 828 832 833 837 841 844 847 850 852 856 858 859 861
734 735 738 741 745 748 751 754 756 758 761 763 766 768 771 771 772 774 777 782 786 789 797 804 809 812 815 820 824 826 830 833 835 838 842 846 849 852 854 858 860 861 863
732 732 734 738 742 745 750 752 754 756 759 760 763 766 767 763 768 769 773 780 784 791 797 803 808 811 815 819 825 826 830 833 836 839 842 847 850 853 856 858 861 862 864
728 729 731 734 739 742 746 749 751 754 756 759 761 765 765 764 766 770 775 781 787 792 797 803 808 810 815 820 823 828 831 834 837 840 842 848 851 853 857 861 863 864 865
721 724 725 730 736 739 743 747 749 752 754 757 760 764 767 768 766 771 774 781 787 792 796 802 808 812 816 820 824 827 830 835 838 842 844 848 851 855 857 861 863 865 867
719 722 724 727 732 736 740 744 747 750 753 755 758 762 766 768 770 773 777 780 784 789 796 801 806 811 815 819 823 826 830 834 839 843 845 849 851 854 857 860 863 866 868
711 718 721 725 730 734 738 742 745 747 750 753 756 759 762 766 768 771 774 778 783 789 795 800 805 809 813 817 822 826 831 835 839 843 846 848 852 853 856 859 861 865 867
708 714 719 723 728 733 735 739 743 745 747 751 754 755 758 761 766 769 772 775 782 788 792 796 801 809 813 817 822 827 831 834 838 841 845 847 850 852 855 858 861 864 865
705 711 715 720 726 730 732 736 740 741 744 747 751 753 754 758 761 765 768 773 777 785 788 794 800 804 811 817 823 831 834 838 839 841 844 846 847 850 852 856 858 862 863
696 705 711 717 721 726 729 732 736 738 741 744 747 750 752 755 755 761 765 767 777 784 790 793 795 803 809 814 818 826 837 841 842 841 845 845 846 849 849 852 854 857 860
693 698 703 710 716 722 726 729 733 736 739 742 743 746 748 751 755 757 759 766 773 780 782 791 794 799 805 813 814 817 830 833 837 840 843 844 845 847 848 850 851 854 856
687 695 699 707 713 718 723 726 727 731 735 738 740 744 745 748 751 757 757 761 765 773 782 787 794 798 804 808 814 817 817 821 830 839 839 840 843 843 844 846 847 849 852
682 688 695 704 711 716 720 723 725 729 732 735 738 742 743 746 749 753 757 757 764 772 776 782 793 795 801 807 809 815 819 820 823 829 833 836 839 839 840 842 843 845 847
681 687 693 701 707 712 717 720 723 727 730 733 736 739 743 745 746 749 752 757 759 761 773 778 788 793 800 803 809 815 814 815 820 822 827 830 831 832 833 836 837 839 842